Weather History for Wooster, OH

Change the Weather History Date:

Tuesday, June 25, 2013

  Actual Average Record
Temperature  
Mean Temperature 79 °F -  
Max Temperature 89 °F 79 °F 91 °F (1997)
Min Temperature 69 °F 57 °F 51 °F (2001)
Cooling Degree Days 14    
Growing Degree Days 29 (Base 50)    
Moisture  
Dew Point 67 °F    
Average Humidity 72    
Maximum Humidity 87    
Minimum Humidity 46    
Precipitation  
Precipitation 0.24 in - - ()
Sea Level Pressure  
Sea Level Pressure 29.95 in    
Wind  
Wind Speed 9 mph (SW)    
Max Wind Speed 33 mph    
Max Gust Speed 47 mph    
Visibility 8 miles    
Events Rain , Thunderstorm    
Averages and records for this station are not official NWS values.
T = Trace of Precipitation, MM = Missing Value Source: NWS Daily Summary

Daily Weather History Graph

Daily Weather History Graph

Search for Another Location

Airport:

Trip Planner

Search our weather history database for the weather conditions in past years. The results will help you decide how hot, cold, wet, or windy it might be!

Date:

Astronomy

Jun. 25, 2013 Rise Set
Actual Time 5:57 AM EDT 9:03 PM EDT
Civil Twilight 5:23 AM EDT 9:36 PM EDT
Nautical Twilight 4:40 AM EDT 10:19 PM EDT
Astronomical Twilight 3:50 AM EDT 11:10 PM EDT
Moon 10:46 PM EDT (6/25) 8:36 AM EDT (6/25)
Length of Visible Light 16h 13m
Length of Day
15h 06m
Waning Gibbous, 93% of the Moon is Illuminated
Jun 25
Waning Gibbous
Jun 30
Last Quarter
Jul 8
New
Jul 15
First Quarter
Jul 22
Full

Hourly Weather History & Observations

Time (EDT) Temp. Heat Index Dew Point Humidity Pressure Visibility Wind Dir Wind Speed Gust Speed Precip Events Conditions
12:56 AM 73.0 °F - 66.0 °F 79% 30.04 in 7.0 mi SW 6.9 mph - N/A   Clear
1:56 AM 72.0 °F - 66.9 °F 84% 30.00 in 6.0 mi SSW 4.6 mph - N/A   Haze
2:56 AM 72.0 °F - 66.9 °F 84% 29.98 in 6.0 mi SSW 5.8 mph - N/A   Haze
3:56 AM 73.0 °F - 66.9 °F 81% 29.98 in 7.0 mi WSW 6.9 mph - N/A   Mostly Cloudy
4:56 AM 71.1 °F - 66.9 °F 87% 29.98 in 6.0 mi SW 5.8 mph - N/A   Clear
5:56 AM 72.0 °F - 66.0 °F 81% 29.99 in 7.0 mi SW 8.1 mph - N/A   Clear
6:56 AM 72.0 °F - 66.0 °F 81% 30.01 in 5.0 mi West 9.2 mph - N/A   Haze
7:56 AM 73.9 °F - 66.9 °F 79% 30.03 in 5.0 mi West 10.4 mph - N/A   Haze
8:56 AM 75.9 °F - 66.9 °F 74% 30.04 in 6.0 mi West 10.4 mph - N/A   Haze
9:56 AM 79.0 °F - 68.0 °F 69% 30.02 in 6.0 mi West 9.2 mph - N/A   Haze
10:56 AM 82.0 °F 84.9 °F 68.0 °F 62% 30.01 in 8.0 mi WSW 11.5 mph - N/A   Clear
11:56 AM 84.0 °F 87.0 °F 68.0 °F 58% 30.00 in 8.0 mi West 11.5 mph - N/A   Mostly Cloudy
12:56 PM 86.0 °F 90.1 °F 69.1 °F 57% 29.98 in 9.0 mi West 9.2 mph - N/A   Mostly Cloudy
1:56 PM 87.1 °F 91.3 °F 69.1 °F 55% 29.96 in 8.0 mi WSW 15.0 mph 24.2 mph N/A   Scattered Clouds
2:39 PM 87.8 °F 92.6 °F 69.8 °F 55% 29.97 in 8.0 mi SW 12.7 mph - N/A Thunderstorm Partly Cloudy
2:54 PM 87.8 °F 92.6 °F 69.8 °F 55% 29.97 in 8.0 mi WSW 13.8 mph - N/A   Partly Cloudy
2:56 PM 87.1 °F 91.3 °F 69.1 °F 55% 29.94 in 8.0 mi WSW 11.5 mph 20.7 mph N/A   Clear
3:56 PM 87.1 °F 90.6 °F 68.0 °F 53% 29.91 in 8.0 mi WSW 11.5 mph 20.7 mph N/A   Scattered Clouds
4:18 PM 89.6 °F 92.2 °F 66.2 °F 46% 29.93 in 9.0 mi West 15.0 mph 24.2 mph N/A Thunderstorm Scattered Clouds
4:31 PM 80.6 °F 83.2 °F 68.0 °F 65% 29.96 in 1.2 mi West 33.4 mph 47.2 mph 0.08 in Rain , Thunderstorm Thunderstorms and Rain
4:33 PM 77.0 °F - 66.2 °F 69% 29.96 in 0.8 mi WSW 12.7 mph 47.2 mph 0.19 in Rain , Thunderstorm Heavy Thunderstorms and Rain
4:42 PM 78.8 °F - 68.0 °F 69% 29.93 in 1.2 mi South 13.8 mph 20.7 mph 0.20 in Rain , Thunderstorm Light Thunderstorms and Rain
4:44 PM 77.0 °F - 68.0 °F 74% 29.94 in 5.0 mi South 11.5 mph 20.7 mph 0.20 in Rain , Thunderstorm Light Thunderstorms and Rain
4:56 PM 75.9 °F - 69.1 °F 79% 29.90 in 10.0 mi SSW 5.8 mph - 0.20 in Thunderstorm Thunderstorm
5:28 PM 78.8 °F - 66.2 °F 65% 29.91 in 10.0 mi WSW 11.5 mph - 0.00 in Rain Light Rain
5:56 PM 78.1 °F - 68.0 °F 71% 29.87 in 10.0 mi WSW 10.4 mph - 0.00 in   Clear
6:56 PM 79.0 °F - 70.0 °F 74% 29.88 in 9.0 mi WSW 9.2 mph - N/A   Clear
7:56 PM 78.1 °F - 68.0 °F 71% 29.88 in 10.0 mi SSW 6.9 mph - N/A   Clear
8:56 PM 75.9 °F - 68.0 °F 76% 29.87 in 9.0 mi South 9.2 mph - N/A   Clear
9:25 PM 73.4 °F - 68.0 °F 83% 29.91 in 10.0 mi South 10.4 mph - N/A Thunderstorm Clear
9:56 PM 73.9 °F - 68.0 °F 82% 29.88 in 10.0 mi SSW 3.5 mph - 0.04 in Rain , Thunderstorm Light Rain
10:28 PM 71.6 °F - 66.2 °F 83% 29.94 in 8.0 mi ENE 12.7 mph - 0.00 in Rain Light Rain
10:56 PM 70.0 °F - 64.9 °F 84% 29.91 in 10.0 mi East 4.6 mph - 0.00 in   Mostly Cloudy
11:32 PM 69.8 °F - 64.4 °F 83% 29.95 in 10.0 mi SE 6.9 mph - 0.00 in   Overcast
11:40 PM 69.8 °F - 64.4 °F 83% 29.94 in 10.0 mi SE 10.4 mph - 0.00 in   Overcast
11:56 PM 69.1 °F - 64.9 °F 87% 29.93 in 10.0 mi NE 12.7 mph - 0.00 in Thunderstorm Mostly Cloudy